Flag for Canada Weather past 2 weeks in Annapolis County, Nova Scotia, Canada

Now
72 °F

Mild.


Feels Like: 76 °F
Forecast: N/A
Wind: 3 mph from Southwest

Location: Kejimkujik 1

Current Time: Aug 29, 2015 at 6:33:46 PM

Latest Report: Aug 29, 2015 at 6:00 PM


Visibility: N/A

Pressure: 30.09 "Hg

Humidity: 62%

Dew point: 58 °F

Location of Annapolis CountyLocation

Historic Weather in Annapolis County — Graph

°F

Annapolis County temperature yesterday

Maximum temperature yesterday: 74 °F (at 3:00 PM)
Minimum temperature yesterday: 54 °F (at 7:00 AM)
Average temperature yesterday: 63 °F

Past Weeks' High & Low Weather Summary

 TemperatureHumidityPressure
High87 °F (Aug 17, 5:00 PM)100% (Aug 15, 6:00 AM)30.23 "Hg (Aug 15, 6:00 AM)
Low52 °F (Aug 29, 7:00 AM)46% (Aug 19, 3:00 PM)29.82 "Hg (Aug 24, 5:00 PM)
Average70 °F82%30.05 "Hg
* Reported Aug 14 5:00 PM — Aug 29 5:00 PM, Annapolis County, Weather by CustomWeather, © 2015

Note: Actual official high and low records may vary slightly from our data, if they occured in-between our weather recording intervals... More about our weather records

Advertising

Annapolis County weather history for previous 24 hours

 ConditionsComfort  
Time TempWeatherWind HumidityBarometerVisibility
5:00 PM
Sat, Aug 29
74 °FMild.5 mph53%30.09 "HgN/A
4:00 PM76 °FMild.6 mph51%30.10 "HgN/A
3:00 PM77 °FMild.6 mph51%30.11 "HgN/A
2:00 PM77 °FWarm.6 mph51%30.13 "HgN/A
1:00 PM75 °FMild.7 mph53%30.14 "HgN/A
12:00 PM74 °FMild.5 mph61%30.15 "HgN/A
11:00 AM71 °FMild.3 mph70%30.15 "HgN/A
10:00 AM65 °FMild.2 mph83%30.15 "HgN/A
9:00 AM59 °FCool.2 mph94%30.15 "HgN/A
8:00 AM54 °FCool.1 mph96%30.13 "HgN/A
7:00 AM52 °FCool.1 mph95%30.13 "HgN/A
6:00 AM52 °FCool.2 mph95%30.11 "HgN/A
5:00 AM52 °FCool.2 mph89%30.11 "HgN/A
4:00 AM53 °FCool.1 mph96%30.12 "HgN/A
3:00 AM54 °FCool.2 mph95%30.12 "HgN/A
2:00 AM54 °FCool.2 mph94%30.12 "HgN/A
1:00 AM55 °FCool.3 mph93%30.11 "HgN/A
12:00 AM56 °FCool.2 mph92%30.10 "HgN/A
11:00 PM
Fri, Aug 28
57 °FCool.2 mph86%30.10 "HgN/A
10:00 PM58 °FCool.2 mph87%30.09 "HgN/A
9:00 PM61 °FCool.2 mph83%30.09 "HgN/A
8:00 PM64 °FMild.2 mph73%30.07 "HgN/A
7:00 PM69 °FMild.5 mph62%30.06 "HgN/A
6:00 PM72 °FMild.6 mph53%30.05 "HgN/A
Weather by CustomWeather, © 2015

See weather overviewHow to use our weather pages